RH
89 84 84 88 87 80 87 79 90 67 66 55 51 60 48 44 57 60 67 73 74 76 74 71 75 80 72 48 48 45 41 46 42 45 49 47 52 57 60 65 67 69 70 73
94 81 83 90 82 80 82 80 82 78 79 55 57 43 41 45 61 72 73 76 79 80 79 75 68 91 52 48 66 42 44 43 43 50 48 48 52 59 63 64 68 73 76 82
93 73 75 96 86 76 80 74 76 94 73 41 44 44 55 51 65 66 71 74 70 70 79 74 92 76 91 87 49 47 47 46 53 54 49 51 60 65 66 70 74 76 80 84
93 79 92 60 52 52 59 59 53 43 39 43 52 42 40 45 51 59 66 68 65 66 84 94 94 76 51 49 47 48 48 51 58 56 55 58 60 68 72 76 82 83 84 85
95 94 85 55 43 40 38 47 35 41 43 47 41 38 41 38 61 72 58 52 54 63 78 60 49 49 48 47 50 52 52 60 62 63 62 60 59 71 78 85 86 86 86 84
93 96 94 61 31 32 50 83 36 41 44 52 45 70 51 44 46 56 68 67 65 51 48 49 49 48 51 54 56 57 61 65 68 69 67 63 65 79 85 88 88 87 86 86
97 94 87 60 32 36 84 90 80 49 41 50 65 65 46 46 45 44 45 46 48 48 46 48 51 54 57 61 61 58 66 70 72 73 68 66 73 84 88 89 90 92 90 83
97 98 91 36 38 72 86 95 92 65 45 46 45 47 47 47 48 50 47 47 46 48 52 57 60 62 65 66 61 62 71 75 77 73 72 76 80 80 88 94 91 88 83 79
84 76 50 33 64 71 89 94 94 70 49 43 48 49 49 49 50 48 48 50 54 56 58 62 64 67 68 71 68 63 73 79 77 76 77 82 84 79 83 88 90 85 81 88
91 76 77 45 43 86 96 94 99 90 62 46 52 63 46 49 50 49 52 56 58 60 64 68 72 76 79 79 72 63 67 79 82 80 82 82 85 82 77 81 87 83 90 91
95 83 85 92 94 96 96 98 95 88 81 79 94 76 48 50 52 55 59 62 65 66 68 70 75 79 82 81 74 72 83 85 84 82 84 84 78 76 81 80 94 96 97 96
95 97 96 96 94 94 90 92 98 96 96 95 93 52 48 52 56 60 64 67 69 73 75 76 77 80 83 80 76 82 84 84 86 87 94 89 83 73 80 89 100 100 100 100
96 97 98 98 97 96 96 96 96 96 94 83 56 48 50 52 60 66 66 70 74 74 75 77 80 82 80 79 85 90 87 88 91 100 96 90 87 85 71 61 79 93 91 100
87 86 98 94 95 94 96 98 96 93 71 53 46 49 54 59 64 69 71 73 74 76 79 80 81 82 82 85 91 90 92 93 95 100 96 94 92 88 85 72 73 77 88 92
86 92 97 97 80 72 74 76 70 60 52 49 50 53 56 59 63 68 72 78 80 81 81 82 83 82 85 91 92 93 95 94 99 100 98 94 85 90 86 88 87 84 81 84
81 79 69 70 73 74 71 65 57 55 54 49 52 55 59 62 67 72 78 82 83 85 84 82 82 87 94 95 96 97 99 96 100 100 89 80 85 92 89 93 91 91 92 90
75 68 66 68 65 64 64 61 61 57 49 52 56 58 62 68 73 78 81 82 84 84 85 84 89 92 98 99 98 99 95 93 98 94 85 80 91 94 94 94 96 95 95 94
54 49 50 49 48 51 56 60 52 49 52 54 57 62 68 73 77 80 83 84 85 87 87 88 93 100 100 98 100 99 95 96 94 92 85 81 93 96 97 97 98 96 90 87
49 48 46 43 45 46 47 46 51 54 55 58 63 69 75 80 84 87 89 90 91 91 92 96 98 99 99 100 100 96 97 94 94 94 87 82 88 98 98 97 96 96 91 80
48 46 44 42 43 47 52 55 56 58 62 67 74 79 84 88 91 92 92 93 93 96 96 98 98 96 97 99 97 97 96 93 94 94 86 82 85 94 96 97 97 93 86 79
47 44 43 44 48 52 52 57 62 67 74 79 83 86 87 87 90 92 93 93 94 97 99 100 97 89 93 99 100 98 99 94 95 95 87 84 85 92 94 94 92 88 82 77
44 43 47 48 50 53 55 57 60 66 74 79 83 85 87 89 91 92 92 92 95 98 100 100 90 90 100 94 100 99 92 95 96 94 88 91 91 92 92 91 88 85 82 80
48 47 52 51 51 55 52 56 64 73 80 86 88 87 86 89 92 92 96 96 99 100 100 96 95 100 99 100 95 91 95 96 96 94 94 94 95 94 93 94 92 91 89 85
53 51 53 53 52 53 59 65 72 77 80 83 84 85 87 90 93 93 96 97 96 100 100 100 99 100 98 91 95 98 97 96 95 96 98 97 97 98 97 95 93 95 92 92
58 57 54 53 50 57 65 72 74 80 82 82 84 86 88 92 94 97 97 97 98 100 95 99 100 100 96 97 97 97 96 96 95 95 97 97 97 96 96 96 97 96 95 98
58 55 55 55 55 61 70 74 78 84 86 86 88 90 92 93 96 97 96 98 100 100 98 98 99 98 98 99 98 98 98 97 98 98 98 97 97 98 97 96 96 95 95 96
63 59 54 52 53 61 69 76 78 87 90 90 91 98 96 97 98 100 100 100 99 98 98 98 99 99 100 99 99 98 98 98 98 97 97 97 98 97 97 96 96 95 96 97
Wind_Speed
8 11 9 9 11 11 11 15 8 19 17 20 13 4 10 15 12 14 19 22 26 29 31 29 26 21 18 15 14 13 13 13 13 14 15 15 16 17 17 18 20 20 21 21
4 13 11 9 14 13 13 15 13 17 21 19 19 9 5 9 15 18 20 21 22 24 24 25 25 20 17 13 14 16 14 13 14 14 15 16 17 17 18 19 20 19 19 19
5 1 3 4 10 9 3 4 6 6 7 4 5 4 7 5 10 13 14 18 21 22 22 25 20 19 20 17 15 14 14 14 14 14 15 15 16 18 19 19 19 17 17 17
5 2 6 6 3 5 7 4 3 5 4 5 3 4 7 6 5 9 12 18 20 23 23 20 18 17 14 14 14 15 14 13 13 14 15 16 18 18 18 17 16 16 16 16
3 3 4 9 2 3 3 2 2 3 5 2 1 3 5 8 2 8 14 17 18 15 14 18 16 14 13 13 14 13 13 13 13 14 16 17 18 17 15 15 15 15 15 15
1 3 4 6 1 1 1 3 1 1 2 3 2 2 1 5 5 5 9 13 14 15 14 12 11 11 11 11 11 12 13 13 13 14 16 17 15 14 14 14 15 15 15 15
4 5 6 4 5 4 3 2 2 2 4 6 3 3 6 8 9 9 10 11 10 9 8 8 8 8 9 10 11 13 13 13 13 14 16 15 14 13 14 14 15 15 16 13
1 0 7 8 4 6 4 4 4 3 3 6 6 9 11 9 7 8 7 7 6 6 6 6 6 7 9 10 11 12 13 13 13 13 14 12 14 14 15 15 16 16 15 13
8 6 1 17 1 7 1 5 6 3 4 8 12 11 10 9 8 7 5 4 4 4 5 6 7 8 9 9 10 11 12 12 12 12 11 12 14 15 15 15 15 16 13 17
0 3 4 10 13 8 5 8 4 5 5 10 11 9 11 10 9 7 5 5 4 4 5 6 7 9 9 10 11 11 11 11 11 11 11 12 12 14 14 13 15 12 15 20
4 5 1 1 4 3 5 6 5 6 8 12 11 10 10 10 8 6 6 5 4 5 5 6 7 8 10 11 11 11 11 11 10 11 11 12 13 13 12 12 11 15 18 19
2 5 4 1 4 4 4 6 6 7 8 9 7 10 10 8 7 6 5 5 6 6 6 7 8 9 9 10 9 9 10 10 10 10 11 12 14 12 9 10 12 12 13 13
4 10 8 6 5 5 5 4 6 6 6 9 10 8 8 7 6 6 6 5 5 6 7 8 8 9 8 8 7 8 10 9 10 7 11 14 14 14 15 8 8 8 9 12
7 8 1 3 2 2 3 7 8 9 9 7 6 7 6 6 5 4 4 5 6 7 7 8 8 8 7 6 6 8 8 9 6 10 13 16 14 15 13 13 12 10 9 11
8 3 0 2 5 8 7 8 11 11 9 7 6 4 4 4 4 5 6 6 7 7 8 8 9 7 6 6 8 7 9 7 7 13 18 15 14 12 11 10 12 11 11 10
2 3 5 6 8 8 8 10 9 8 6 5 4 4 3 4 5 6 6 7 7 8 8 8 7 6 5 6 8 8 6 9 9 15 15 13 12 10 9 10 10 9 10 13
7 4 7 8 8 8 8 7 5 4 4 3 3 3 3 4 5 5 6 7 8 8 8 7 5 5 5 8 7 6 7 12 14 14 13 12 11 9 9 9 9 8 10 13
4 5 6 6 8 9 8 7 5 4 4 4 3 3 3 4 5 7 8 9 9 8 7 6 4 4 9 5 7 9 10 15 16 15 14 12 10 10 9 8 8 9 11 13
7 6 8 8 7 6 5 4 4 3 3 3 3 4 5 6 7 8 9 9 8 7 6 6 5 6 6 8 8 9 12 17 16 15 14 13 11 9 9 8 8 10 13 16
8 8 8 7 7 5 3 2 2 3 3 4 4 5 6 7 8 8 8 8 7 5 5 6 7 6 5 7 10 9 16 19 17 15 14 13 12 11 10 10 11 13 15 18
9 8 6 5 4 3 2 2 2 3 4 5 6 6 6 7 7 7 7 7 6 6 6 5 6 8 9 13 10 12 19 19 16 16 15 14 12 11 12 13 15 16 18 20
9 6 6 4 3 3 2 2 3 4 5 5 5 6 6 6 6 6 6 5 5 4 4 6 7 4 3 9 9 18 19 16 16 15 15 14 13 12 12 12 14 15 16 18
9 7 5 3 4 4 2 2 4 5 4 5 5 6 6 6 6 6 6 6 5 2 7 11 6 9 13 13 17 19 15 15 15 14 14 13 11 11 12 13 13 13 15 18
10 8 6 5 5 4 3 4 4 5 5 6 6 6 6 7 8 7 7 6 5 4 10 10 5 6 16 17 16 13 13 13 13 13 12 10 10 11 11 12 12 13 15 16
11 9 8 7 6 5 5 5 5 5 6 6 6 7 7 6 8 7 7 7 7 8 9 8 8 8 10 10 10 11 12 12 13 11 10 9 9 10 12 12 12 15 17 19
12 9 8 8 7 7 6 6 6 6 6 7 8 7 7 7 7 7 8 7 9 9 9 8 9 10 9 9 10 11 11 11 11 10 8 9 9 11 12 12 13 15 17 20
13 12 11 10 9 7 6 7 7 6 7 7 7 8 7 8 8 9 9 9 9 8 7 8 9 8 8 9 11 11 11 11 11 10 9 9 10 11 13 12 14 16 19 21
Wind_Direction
251 266 271 260 266 250 210 240 254 273 278 274 298 266 254 274 246 212 210 207 207 203 201 203 204 203 212 225 244 259 266 267 274 274 280 284 287 287 289 292 294 297 297 297
262 257 247 256 263 261 260 259 252 259 271 282 289 302 280 258 210 203 207 210 205 205 204 202 197 208 217 232 257 266 271 275 273 277 280 283 286 289 290 294 295 292 293 296
253 240 86 280 239 236 232 209 187 209 245 351 332 3 4 302 219 207 203 187 193 201 201 195 204 210 231 250 253 266 271 271 272 276 280 285 289 291 292 293 291 289 290 293
266 155 245 241 233 211 216 237 239 328 354 325 349 81 32 16 242 209 201 195 195 197 200 210 218 223 226 246 261 265 265 265 269 276 283 286 290 291 289 290 287 287 291 294
234 192 317 307 165 151 176 250 61 323 321 350 131 329 21 16 28 192 191 198 195 205 212 196 206 225 243 253 257 258 261 263 270 278 285 289 289 289 290 286 286 288 294 301
14 266 237 236 179 163 130 297 287 310 281 212 13 18 294 76 86 133 177 188 189 180 187 207 224 239 248 250 256 260 260 266 274 281 286 290 289 287 288 289 291 298 300 303
252 261 271 227 166 193 122 253 225 288 258 192 177 206 154 144 132 136 147 160 175 191 210 225 234 240 246 257 265 265 267 271 276 284 289 291 286 283 288 293 295 292 296 300
97 156 279 153 129 189 161 184 270 268 238 183 166 143 154 160 161 162 167 172 185 200 209 222 236 249 259 266 267 265 268 273 279 284 289 288 285 287 286 289 287 289 296 302
192 217 164 188 256 149 289 246 275 243 209 183 158 166 176 183 187 183 188 192 198 213 229 242 255 260 268 276 274 272 270 271 279 285 288 286 293 295 290 288 288 292 299 313
19 234 230 215 216 281 250 237 258 230 203 189 171 186 193 193 192 193 199 208 223 233 246 255 266 273 277 283 285 283 282 282 284 286 289 293 294 296 291 289 290 298 314 318
255 282 312 323 245 209 224 236 228 216 207 202 195 192 203 196 196 202 213 220 238 257 266 268 270 278 281 283 286 289 287 287 287 289 293 298 304 308 298 297 305 311 307 308
323 359 30 289 241 247 254 259 234 210 185 181 190 200 196 196 203 213 225 242 258 269 279 286 289 287 285 289 291 289 290 293 293 297 305 312 313 308 303 300 298 292 291 296
299 306 299 281 252 268 279 219 190 177 169 178 178 193 192 203 207 224 238 251 263 277 283 288 291 292 292 289 287 297 302 302 299 305 311 316 317 315 318 317 317 313 305 309
342 343 3 9 340 85 139 145 151 152 157 169 180 179 191 199 212 228 247 264 276 286 294 296 294 293 293 287 293 306 308 309 306 315 314 321 315 315 315 318 323 329 336 333
345 359 143 107 114 120 121 132 143 149 155 162 168 179 194 219 238 252 261 275 288 293 296 297 296 291 285 285 306 304 313 313 320 314 311 311 310 308 309 314 320 323 331 338
17 100 116 133 136 138 142 145 154 158 165 173 178 190 210 236 249 263 279 283 288 295 293 291 288 278 280 304 312 310 309 322 315 304 316 315 314 311 311 318 323 333 340 343
157 154 158 158 162 157 151 151 158 167 173 180 190 216 238 258 272 278 279 283 285 285 284 285 268 269 282 307 321 315 309 326 327 322 320 317 316 310 313 323 327 334 342 345
179 163 156 160 158 158 166 170 169 173 185 198 211 240 262 274 281 286 287 286 282 283 281 263 256 280 302 308 324 321 325 334 331 327 324 318 309 305 309 314 318 327 337 343
155 151 153 147 149 154 163 174 187 196 207 220 245 262 277 283 284 283 283 284 285 283 283 258 260 270 271 301 309 308 323 335 331 325 320 316 308 295 292 300 308 321 329 334
162 156 157 159 160 158 169 194 208 226 237 255 266 271 272 274 279 282 285 284 284 277 271 265 280 282 253 319 307 311 327 331 327 324 323 320 313 301 283 290 299 308 317 324
163 158 162 161 162 166 182 194 218 255 267 270 272 274 275 278 282 287 289 290 293 282 280 277 304 308 253 302 290 311 323 323 323 324 323 320 314 305 296 290 293 301 310 316
171 172 170 160 172 182 183 231 258 259 263 272 279 282 287 288 289 291 295 299 297 291 268 283 312 321 259 316 288 313 320 320 321 321 321 320 318 313 310 305 301 303 308 316
182 186 182 192 210 197 205 248 263 265 270 281 288 297 301 299 299 299 297 306 296 312 313 305 327 321 288 295 307 314 316 318 319 321 323 321 319 318 321 321 320 320 322 324
195 203 205 225 222 213 235 258 266 280 291 297 302 303 303 303 303 308 304 300 309 324 285 299 310 304 297 299 307 312 315 318 323 325 322 324 326 324 323 326 329 330 330 332
204 213 220 230 229 227 246 267 280 293 302 306 308 309 309 308 308 308 304 302 302 288 298 302 286 294 300 306 312 318 323 327 328 328 328 326 326 330 332 331 334 338 340 339
217 224 229 234 233 237 251 272 284 291 300 308 310 309 308 314 312 307 306 313 311 307 307 309 309 313 317 317 322 327 327 330 331 326 324 326 331 336 335 333 336 338 339 340
217 225 232 236 241 249 260 274 288 300 307 308 314 311 306 317 318 311 309 311 311 309 312 316 318 317 320 324 328 328 329 332 334 331 328 326 327 335 338 336 339 338 342 341